Home > Weather > Jeddah > Past weeks

Flag for Saudi Arabia Weather for the Past 2 Weeks in Jeddah, Saudi Arabia

Now
88 °F

Sunny.


Feels Like: 90 °F
Forecast: 82 / 94 °F
Wind: 2 mph from Northwest

Location: Jeddah King Abdul Aziz International Airport

Current Time: Apr 29, 2016 at 7:56:17 AM

Latest Report: Apr 29, 2016 at 7:00 AM


Visibility: 10 mi

Pressure: 29.74 "Hg

Humidity: 49%

Dew Point: 66 °F

Location of JeddahLocation

Historic Weather in Jeddah — Graph

°F

Jeddah Temperature Yesterday

Maximum temperature yesterday: 99 °F (at 10:00 AM)
Minimum temperature yesterday: 84 °F (at 3:00 AM)
Average temperature yesterday: 91 °F

High & Low Weather Summary for the Past Weeks

 TemperatureHumidityPressure
High104 °F (Apr 23, 2:00 PM)70% (Apr 20, 7:00 AM)29.95 "Hg (Apr 20, 7:00 AM)
Low68 °F (Apr 14, 6:00 AM)14% (Apr 17, 11:00 AM)29.65 "Hg (Apr 23, 4:00 PM)
Average89 °F42%29.77 "Hg
* Reported Apr 14 6:00 AM — Apr 29 6:00 AM, Jeddah, Weather by CustomWeather, © 2016

Note: Actual official high and low records may vary slightly from our data, if they occured in-between our weather recording intervals... More about our weather records

Advertising

Jeddah Weather History for the Previous 24 Hours

Scroll right to see more
 ConditionsComfort  
Time TempWeatherWind HumidityBarometerVisibility
6:00 AM
Fri, Apr 29
86 °FSunny.5 mph52%29.71 "Hg10 mi
5:00 AM86 °FClear.7 mph52%29.68 "Hg10 mi
4:00 AM88 °FClear.5 mph49%29.68 "Hg10 mi
3:00 AM88 °FClear.5 mph49%29.68 "Hg10 mi
2:00 AM88 °FClear.7 mph52%29.71 "Hg10 mi
1:00 AM88 °FClear.5 mph52%29.71 "Hg10 mi
12:00 AM90 °FClear.5 mph52%29.74 "Hg10 mi
11:00 PM
Thu, Apr 28
90 °FPassing clouds.7 mph52%29.74 "HgN/A
10:00 PM90 °FPassing clouds.6 mph52%29.74 "HgN/A
9:00 PM91 °FPassing clouds.7 mph44%29.71 "HgN/A
8:00 PM91 °FPassing clouds.7 mph41%29.71 "HgN/A
7:00 PM91 °FPassing clouds.12 mph46%29.68 "HgN/A
6:00 PM95 °FPassing clouds.9 mph32%29.68 "HgN/A
5:00 PM95 °FPassing clouds.9 mph36%29.68 "HgN/A
3:00 PM95 °FScattered clouds.16 mph30%29.68 "HgN/A
2:00 PM97 °FPassing clouds.18 mph30%29.71 "HgN/A
1:00 PM97 °FSunny.16 mph28%29.71 "Hg10 mi
12:00 PM97 °FSunny.14 mph27%29.74 "Hg10 mi
11:00 AM99 °FSunny.12 mph21%29.74 "Hg5 mi
10:00 AM99 °FSunny.7 mph24%29.74 "Hg5 mi
9:00 AM95 °FSunny.No wind30%29.74 "Hg10 mi
8:00 AM91 °FSunny.5 mph34%29.74 "Hg10 mi
7:00 AM84 °FSunny.No wind48%29.74 "Hg10 mi
Weather by CustomWeather, © 2016

See weather overviewHow to use our weather pages